Regional Weather Roundup
Issued by NWS

Home | Current Version | Previous Version | Text Only | Print | Product List | Glossary Off
Versions: 1 2 3 4 5 6 7 8 9 10 11 12 13 14 15 16 17 18 19 20 21 22 23 24 25 26 27 28 29 30 31 32 33 34 35 36 37 38 39 40 41 42 43 44 45 46 47 48 49 50

016
ASUS43 KIND 191459
RWRIN

WEATHER ROUNDUP FOR INDIANA
NATIONAL WEATHER SERVICE INDIANAPOLIS IN
1100 AM EDT THU OCT 19 2017

NOTE: "FAIR" INDICATES FEW OR NO CLOUDS BELOW 12,000 FEET WITH NO
SIGNIFICANT WEATHER AND/OR OBSTRUCTIONS TO VISIBILITY.

* - STATION DOES NOT REPORT WEATHER SUCH AS PRECIPITATION OR FOG.

+ - STATION NOT QUALITY CONTROLLED BY THE NATIONAL WEATHER SERVICE.
    USE DATA WITH CAUTION...ESPECIALLY DEWPOINT AND RELATIVE
    HUMIDITY OBSERVATIONS.

INZ001>003-010>013-019-020-191600-
NORTHWEST INDIANA

CITY           SKY/WX    TMP DP  RH WIND       PRES   REMARKS
GARY /AIRPORT/ MOSUNNY   63  39  42 NW10      30.18R
KNOX *+        SUNNY     57  48  72 W8        30.17R
MONTICELLO +   SUNNY     60  49  65 SW9       30.18S
RENSSELAER +   SUNNY     61  45  55 W8        30.18R

$$

LMZ046-743>745-191600-
SOUTHERN LAKE MICHIGAN

STATION/POSITION TIME  TEMP    WIND        PRES    WAVE
                       AIR SEA DIR/SP/G            HT
                 (UTC) (F)     (DEG/KT/KT) (MB)    (FT)
BURNS HARBOR     1440   57     280/  7/  9 1022.4R
MICHIGAN CITY    1430   58     300/  9/  9   N/A
5NW MICH CITY    1450   59 58  310/  6/  8   N/A     2

$$

INZ004-005-014>016-021>024-191600-
NORTH CENTRAL INDIANA

CITY           SKY/WX    TMP DP  RH WIND       PRES   REMARKS
ELKHART        PTSUNNY   57  48  72 W6        30.17R
GOSHEN         MOSUNNY   58  48  69 W9        30.17R
PERU/GRISSOM   SUNNY     61  50  67 W10       30.18R
SOUTH BEND     CLOUDY    57  51  80 W8        30.18R

$$

INZ006>009-017-018-025>027-191600-
NORTHEAST INDIANA

CITY           SKY/WX    TMP DP  RH WIND       PRES   REMARKS
FORT WAYNE     PTSUNNY   62  48  60 W14       30.17R
KENDALLVILLE + PTSUNNY   59  49  68 W12       30.17R

$$

INZ028-029-035-036-043>045-051>053-191600-
WEST CENTRAL INDIANA

CITY           SKY/WX    TMP DP  RH WIND       PRES   REMARKS
GREENCASTLE +  SUNNY     61  46  59 CALM      30.23R
LAFAYETTE      SUNNY     59  50  72 W9        30.19R
TERRE HAUTE    SUNNY     61  49  64 S9        30.22R

$$

INZ030>032-037>040-046>048-054>057-064-065-191600-
CENTRAL INDIANA

CITY           SKY/WX    TMP DP  RH WIND       PRES   REMARKS
ANDERSON       SUNNY     59  48  67 SW12      30.21
COLUMBUS       SUNNY     57  46  67 S6        30.24S
GREENWOOD *+   SUNNY     66  52  61 SW6       30.23R
INDIANAPOLIS   MOSUNNY   62  49  62 SW12      30.22S
-EAGLE CREEK   SUNNY     61  48  62 VRB5      30.21R
KOKOMO +       SUNNY     62  49  62 W13       30.19S
MT COMFORT *+  SUNNY     61  52  72 SW8       30.22R
SHELBYVILLE    SUNNY     61  48  62 S10       30.22S

$$

INZ033-034-041-042-049-050-058-059-191600-
EAST CENTRAL INDIANA

CITY           SKY/WX    TMP DP  RH WIND       PRES   REMARKS
MUNCIE         SUNNY     64  48  56 SW12      30.20R
RICHMOND +     SUNNY     61  46  59 W15       30.23S

$$

INZ060-061-067>069-081>083-085>088-191600-
SOUTHWEST INDIANA

CITY           SKY/WX    TMP DP  RH WIND       PRES   REMARKS
EVANSVILLE     SUNNY     62  50  64 SW12      30.26R
HUNTINGBURG +  SUNNY     62  50  64 SW12      30.26S

$$

INZ062-063-066-070>080-084-089>092-191600-
SOUTH CENTRAL AND SOUTHEAST INDIANA

CITY           SKY/WX    TMP DP  RH WIND       PRES   REMARKS
BLOOMINGTON    SUNNY     62  47  57 SW8       30.23S
MADISON *+     SUNNY     63  45  51 SW8       30.28S
SEYMOUR +      SUNNY     64  48  55 S7        30.25S

$$





USA.gov is the U.S. government's official web portal to all federal, state and local government web resources and services.